Other Surface Observations
Issued by NWS

Home | Current Version | Previous Version | Text Only | Print | Product List | Glossary On
Versions: 1 2 3 4 5 6 7 8 9 10 11 12 13 14 15 16 17 18 19 20 21 22 23 24 25 26 27 28 29 30 31 32 33 34 35 36 37 38 39 40 41 42 43 44 45 46 47 48 49 50
000
SXUS52 KTAE 060518
OSOTAE
OSOTAE
North Florida/South Alabama/Southwest Georgia Weather Roundup
National Weather Service Tallahassee Florida
100 AM EDT WED MAY 06 2015

Note: "fair" indicates few or no clouds below 12,000 feet with no
significant weather and/or obstructions to visibility.

!FLZ017-115-028-034-025-060600
...North Florida...

CITY           SKY/WX    TMP DP  RH WIND       PRES   REMARKS
TALLAHASSEE    MOCLDY    70  62  76 E5        30.18S
APALACHICOLA   CLOUDY    77  65  66 E10       30.15S
PERRY          CLEAR     66  62  86 CALM      30.18F
CROSS CITY       N/A     65  61  87 NE3       30.16F
JACKSONVILLE   MOCLDY    68  65  90 N6        30.16F
$$

!FLZ112-006-005-002-011-060600
...Florida Panhandle...

CITY           SKY/WX    TMP DP  RH WIND       PRES   REMARKS
MARIANNA       PTCLDY    71  62  73 CALM      30.16F
BONIFAY        NOT AVBL
PANAMA CITY NW MOCLDY    70  65  84 CALM      30.15F
TYNDALL AFB    PTCLDY    72  63  75 E5        30.15F
TYND DRONE APT FAIR      72  64  77 E5        30.15S
DE FUNIAK SPR  FAIR      68  57  68 E7        30.17F
EGLIN AFB      PTCLDY    68  62  82 N2        30.15F
DESTIN         PTCLDY    70  66  87 CALM      30.15F
HURLBURT       PTCLDY    68  63  83 CALM      30.14F
CRESTVIEW      PTCLDY    61  58  90 CALM      30.17F
PENSACOLA      PTCLDY    69  65  86 E3        30.14F
$$

!ALZ063-066-060600
...South Alabama...

CITY           SKY/WX    TMP DP  RH WIND       PRES   REMARKS
DOTHAN         CLEAR     70  55  59 E6        30.21S
OZARK CAIRNS   MOCLDY    67  55  65 NE2       30.17S
FT RUCKER HELI CLOUDY    63  57  81 CALM      30.16F
RUCKER HELI 3  MOCLDY    62  58  88 N2        30.18F
RUCKER HELI 2  CLOUDY    68  55  63 E5        30.17F
FLORALA APT    CLOUDY    63  57  81 CALM      30.18F
ANDALUSIA      CLEAR     65  54  67 CALM      30.16F
TROY           CLEAR     58  55  90 CALM      30.19S
EUFALA         FAIR      66  57  72 E6        30.18F
MOBILE         CLEAR     65  61  87 E5        30.15F
$$

!GAZ120>161-060600
...Southwest and South Central Georgia...

CITY           SKY/WX    TMP DP  RH WIND       PRES   REMARKS
THOMASVILLE    FAIR      66  61  82 SE3       30.21S
BAINBRIDGE     CLEAR     72  64  78 E9        30.19S
MOODY AFB      CLEAR     64  59  82 NE2       30.18F
VALDOSTA       CLEAR     64  60  87 N3        30.19F
MOULTRIE       CLEAR     68  59  73 CALM      30.21S
BLAKELY        CLEAR     66  61  82 CALM      30.19F
ALBANY         CLEAR     68  58  70 E6        30.22S
TIFTON         FAIR      65  57  74 CALM      30.21S
FITZGERALD     FAIR      65  58  77 CALM      30.23F
CORDELE        FAIR      66  57  72 E5        30.23S
AMERICUS       FAIR      64  55  72 E6        30.23S
HOMERVILLE     FAIR      64  63  94 CALM      30.20S
$$

!GMZ750-755-770-775-060600
...Coastal and Buoy Obs...

STATION/POSITION TIME  TEMP    WIND        PRES    VSBY  WAVE
                       AIR SEA DIR/SP/G                  HT/PER
                 (UTC) (F)     (DEG/KT/KT) (MB)    (MI)  (FT/S)
KEATON BEACH     0500   67      20/  2/  3 1021.7F
CEDAR KEY        0500   67      40/  6/  7 1021.1F
C TOWER          0500   74      80/ 17/ 18 1020.5F
APALACHICOLA BUO 0450   76 75   80/ 17/ 21 1019.7F         3/ 5
PANAMA CITY BUOY 0450   74 75   90/ 16/ 19 1020.2F         4/ 6
MOBILE BUOY      0450   74 75  120/ 16/ 19 1020.2F         5/ 7
ORANGE BCH AL BU 0450   74 74  100/ 10/ 12 1019.8F         4/ 7
$$



USA.gov is the U.S. government's official web portal to all federal, state and local government web resources and services.